Time,TemperatureF,DewpointF,PressureIn,WindDirection,WindDirectionDegrees,WindSpeedMPH,WindSpeedGustMPH,Humidity,HourlyPrecipIn,Conditions,Clouds,dailyrainin,SolarRadiationWatts/m^2,SoftwareType,DateUTC
2013-09-01 00:00:00,69.0,39.0,-100.00,West,278,3.0,9.0,34,0.00,,,0.00,0.000000,,2013-09-01 07:00:00,
2013-09-01 00:22:00,69.0,39.0,-100.00,West,278,3.0,9.0,34,0.00,,,0.00,0.000000,,2013-09-01 07:22:00,
2013-09-01 00:32:00,69.0,39.0,-100.00,West,278,3.0,9.0,34,0.00,,,0.00,0.000000,,2013-09-01 07:32:00,
2013-09-01 00:42:00,69.0,39.0,-100.00,West,278,3.0,9.0,34,0.00,,,0.00,0.000000,,2013-09-01 07:42:00,
2013-09-01 00:52:00,69.0,39.0,-100.00,West,278,3.0,9.0,34,0.00,,,0.00,0.000000,,2013-09-01 07:52:00,
2013-09-01 01:00:00,68.0,41.0,-100.00,WNW,288,2.0,8.0,37,0.00,,,0.00,0.000000,,2013-09-01 08:00:00,
2013-09-01 01:22:00,68.0,41.0,-100.00,WNW,288,2.0,8.0,37,0.00,,,0.00,0.000000,,2013-09-01 08:22:00,
2013-09-01 01:32:00,68.0,41.0,-100.00,WNW,288,2.0,8.0,37,0.00,,,0.00,0.000000,,2013-09-01 08:32:00,
2013-09-01 01:43:00,68.0,41.0,-100.00,WNW,288,2.0,8.0,37,0.00,,,0.00,0.000000,,2013-09-01 08:43:00,
2013-09-01 01:52:00,68.0,41.0,-100.00,WNW,288,2.0,8.0,37,0.00,,,0.00,0.000000,,2013-09-01 08:52:00,
2013-09-01 02:00:00,67.0,43.0,-100.00,West,275,3.0,6.0,41,0.00,,,0.00,0.000000,,2013-09-01 09:00:00,
2013-09-01 02:22:00,67.0,43.0,-100.00,West,275,3.0,6.0,41,0.00,,,0.00,0.000000,,2013-09-01 09:22:00,
2013-09-01 02:34:00,67.0,43.0,-100.00,West,275,3.0,6.0,41,0.00,,,0.00,0.000000,,2013-09-01 09:34:00,
2013-09-01 02:43:00,67.0,43.0,-100.00,West,275,3.0,6.0,41,0.00,,,0.00,0.000000,,2013-09-01 09:43:00,
2013-09-01 02:53:00,67.0,43.0,-100.00,West,275,3.0,6.0,41,0.00,,,0.00,0.000000,,2013-09-01 09:53:00,
2013-09-01 03:00:00,65.0,43.0,-100.00,West,262,1.0,7.0,44,0.00,,,0.00,0.000000,,2013-09-01 10:00:00,
2013-09-01 03:23:00,65.0,43.0,-100.00,West,262,1.0,7.0,44,0.00,,,0.00,0.000000,,2013-09-01 10:23:00,
2013-09-01 03:33:00,65.0,43.0,-100.00,West,262,1.0,7.0,44,0.00,,,0.00,0.000000,,2013-09-01 10:33:00,
2013-09-01 03:42:00,65.0,43.0,-100.00,West,262,1.0,7.0,44,0.00,,,0.00,0.000000,,2013-09-01 10:42:00,
2013-09-01 03:53:00,65.0,43.0,-100.00,West,262,1.0,7.0,44,0.00,,,0.00,0.000000,,2013-09-01 10:53:00,
2013-09-01 04:00:00,64.0,43.0,-100.00,West,280,0.0,6.0,47,0.00,,,0.00,0.000000,,2013-09-01 11:00:00,
2013-09-01 04:22:00,64.0,43.0,-100.00,West,280,0.0,6.0,47,0.00,,,0.00,0.000000,,2013-09-01 11:22:00,
2013-09-01 04:32:00,64.0,43.0,-100.00,West,280,0.0,6.0,47,0.00,,,0.00,0.000000,,2013-09-01 11:32:00,
2013-09-01 04:42:00,64.0,43.0,-100.00,West,280,0.0,6.0,47,0.00,,,0.00,0.000000,,2013-09-01 11:42:00,
2013-09-01 04:52:00,64.0,43.0,-100.00,West,280,0.0,6.0,47,0.00,,,0.00,0.000000,,2013-09-01 11:52:00,
2013-09-01 05:00:00,63.0,43.0,-100.00,West,271,1.0,4.0,48,0.00,,,-99.99,0.000000,,2013-09-01 12:00:00,
2013-09-01 05:22:00,63.0,43.0,-100.00,West,271,1.0,4.0,48,0.00,,,-99.99,0.000000,,2013-09-01 12:22:00,
2013-09-01 05:32:00,63.0,43.0,-100.00,West,271,1.0,4.0,48,0.00,,,-99.99,0.000000,,2013-09-01 12:32:00,
2013-09-01 05:42:00,63.0,43.0,-100.00,West,271,1.0,4.0,48,0.00,,,-99.99,0.000000,,2013-09-01 12:42:00,
2013-09-01 05:52:00,63.0,43.0,-100.00,West,271,1.0,4.0,48,0.00,,,-99.99,0.000000,,2013-09-01 12:52:00,
2013-09-01 06:00:00,63.0,45.0,-100.00,West,260,2.0,5.0,51,0.00,,,0.00,0.000000,,2013-09-01 13:00:00,
2013-09-01 06:42:00,63.0,45.0,-100.00,West,260,2.0,5.0,51,0.00,,,0.00,0.000000,,2013-09-01 13:42:00,
2013-09-01 06:52:00,63.0,45.0,-100.00,West,260,2.0,5.0,51,0.00,,,0.00,0.000000,,2013-09-01 13:52:00,
2013-09-01 07:00:00,62.0,43.0,-100.00,NNW,330,0.0,8.0,50,0.00,,,0.00,0.000000,,2013-09-01 14:00:00,
2013-09-01 07:22:00,62.0,43.0,-100.00,NNW,330,0.0,8.0,50,0.00,,,0.00,0.000000,,2013-09-01 14:22:00,
2013-09-01 07:32:00,62.0,43.0,-100.00,NNW,330,0.0,8.0,50,0.00,,,0.00,0.000000,,2013-09-01 14:32:00,
2013-09-01 07:42:00,62.0,43.0,-100.00,NNW,330,0.0,8.0,50,0.00,,,0.00,0.000000,,2013-09-01 14:42:00,
2013-09-01 07:52:00,62.0,43.0,-100.00,NNW,330,0.0,8.0,50,0.00,,,0.00,0.000000,,2013-09-01 14:52:00,
2013-09-01 08:23:00,63.0,40.0,-100.00,WNW,297,0.0,3.0,43,0.00,,,0.00,12.000000,,2013-09-01 15:23:00,
2013-09-01 08:34:00,63.0,40.0,-100.00,WNW,297,0.0,3.0,43,0.00,,,0.00,12.000000,,2013-09-01 15:34:00,
2013-09-01 08:45:00,63.0,40.0,-100.00,WNW,297,0.0,3.0,43,0.00,,,0.00,12.000000,,2013-09-01 15:45:00,
2013-09-01 09:00:00,69.0,38.0,-100.00,North,10,3.0,4.0,32,0.00,,,0.00,88.000000,,2013-09-01 16:00:00,
2013-09-01 09:43:00,69.0,38.0,-100.00,North,10,3.0,4.0,32,0.00,,,0.00,88.000000,,2013-09-01 16:43:00,
2013-09-01 09:53:00,69.0,38.0,-100.00,North,10,3.0,4.0,32,0.00,,,0.00,88.000000,,2013-09-01 16:53:00,
2013-09-01 10:00:00,75.0,41.0,-100.00,NNE,13,4.0,6.0,29,0.00,,,0.00,310.000000,,2013-09-01 17:00:00,
2013-09-01 10:42:00,75.0,41.0,-100.00,NNE,13,4.0,6.0,29,0.00,,,0.00,310.000000,,2013-09-01 17:42:00,
2013-09-01 10:52:00,75.0,41.0,-100.00,NNE,13,4.0,6.0,29,0.00,,,0.00,310.000000,,2013-09-01 17:52:00,
2013-09-01 11:00:00,78.0,42.0,-100.00,NNE,13,2.0,8.0,28,0.00,,,0.00,635.000000,,2013-09-01 18:00:00,
2013-09-01 11:22:00,78.0,42.0,-100.00,NNE,13,2.0,8.0,28,0.00,,,0.00,635.000000,,2013-09-01 18:22:00,
2013-09-01 11:32:00,78.0,42.0,-100.00,NNE,13,2.0,8.0,28,0.00,,,0.00,635.000000,,2013-09-01 18:32:00,
2013-09-01 11:42:00,78.0,42.0,-100.00,NNE,13,2.0,8.0,28,0.00,,,0.00,635.000000,,2013-09-01 18:42:00,
2013-09-01 11:52:00,78.0,42.0,-100.00,NNE,13,2.0,8.0,28,0.00,,,0.00,635.000000,,2013-09-01 18:52:00,
2013-09-01 12:00:00,80.0,40.0,-100.00,NNE,19,5.0,8.0,24,0.00,,,0.00,677.000000,,2013-09-01 19:00:00,
2013-09-01 12:42:00,80.0,40.0,-100.00,NNE,19,5.0,8.0,24,0.00,,,0.00,677.000000,,2013-09-01 19:42:00,
2013-09-01 12:52:00,80.0,40.0,-100.00,NNE,19,5.0,8.0,24,0.00,,,0.00,677.000000,,2013-09-01 19:52:00,
2013-09-01 13:00:00,85.0,43.0,-100.00,NW,322,2.0,9.0,23,0.00,,,0.00,896.000000,,2013-09-01 20:00:00,
2013-09-01 13:22:00,85.0,43.0,-100.00,NW,322,2.0,9.0,23,0.00,,,0.00,896.000000,,2013-09-01 20:22:00,
2013-09-01 13:32:00,85.0,43.0,-100.00,NW,322,2.0,9.0,23,0.00,,,0.00,896.000000,,2013-09-01 20:32:00,
2013-09-01 13:42:00,85.0,43.0,-100.00,NW,322,2.0,9.0,23,0.00,,,0.00,896.000000,,2013-09-01 20:42:00,
2013-09-01 13:52:00,85.0,43.0,-100.00,NW,322,2.0,9.0,23,0.00,,,0.00,896.000000,,2013-09-01 20:52:00,
2013-09-01 14:00:00,84.0,37.0,-100.00,WNW,283,6.0,9.0,19,0.00,,,0.00,709.000000,,2013-09-01 21:00:00,
2013-09-01 14:22:00,84.0,37.0,-100.00,WNW,283,6.0,9.0,19,0.00,,,0.00,709.000000,,2013-09-01 21:22:00,
2013-09-01 14:34:00,84.0,37.0,-100.00,WNW,283,6.0,9.0,19,0.00,,,0.00,709.000000,,2013-09-01 21:34:00,
2013-09-01 14:44:00,84.0,37.0,-100.00,WNW,283,6.0,9.0,19,0.00,,,0.00,709.000000,,2013-09-01 21:44:00,
2013-09-01 14:55:00,84.0,37.0,-100.00,WNW,283,6.0,9.0,19,0.00,,,0.00,709.000000,,2013-09-01 21:55:00,
2013-09-01 15:00:00,90.0,43.0,-100.00,WNW,302,3.0,15.0,20,0.00,,,0.00,839.000000,,2013-09-01 22:00:00,
2013-09-01 15:24:00,90.0,43.0,-100.00,WNW,302,3.0,15.0,20,0.00,,,0.00,839.000000,,2013-09-01 22:24:00,
2013-09-01 15:34:00,90.0,43.0,-100.00,WNW,302,3.0,15.0,20,0.00,,,0.00,839.000000,,2013-09-01 22:34:00,
2013-09-01 15:43:00,90.0,43.0,-100.00,WNW,302,3.0,15.0,20,0.00,,,0.00,839.000000,,2013-09-01 22:43:00,
2013-09-01 15:53:00,90.0,43.0,-100.00,WNW,302,3.0,15.0,20,0.00,,,0.00,839.000000,,2013-09-01 22:53:00,
2013-09-01 16:00:00,87.0,46.0,-100.00,ENE,69,3.0,13.0,24,-99.99,,,0.00,740.000000,,2013-09-01 23:00:00,
2013-09-01 16:23:00,87.0,46.0,-100.00,ENE,69,3.0,13.0,24,-99.99,,,0.00,740.000000,,2013-09-01 23:23:00,
2013-09-01 16:34:00,87.0,46.0,-100.00,ENE,69,3.0,13.0,24,-99.99,,,0.00,740.000000,,2013-09-01 23:34:00,
2013-09-01 16:42:00,87.0,46.0,-100.00,ENE,69,3.0,13.0,24,-99.99,,,0.00,740.000000,,2013-09-01 23:42:00,
2013-09-01 16:53:00,87.0,46.0,-100.00,ENE,69,3.0,13.0,24,-99.99,,,0.00,740.000000,,2013-09-01 23:53:00,
2013-09-01 17:00:00,84.0,45.0,-100.00,WNW,286,5.0,16.0,26,0.00,,,0.00,338.000000,,2013-09-02 00:00:00,
2013-09-01 17:22:00,84.0,45.0,-100.00,WNW,286,5.0,16.0,26,0.00,,,0.00,338.000000,,2013-09-02 00:22:00,
2013-09-01 17:33:00,84.0,45.0,-100.00,WNW,286,5.0,16.0,26,0.00,,,0.00,338.000000,,2013-09-02 00:33:00,
2013-09-01 17:42:00,84.0,45.0,-100.00,WNW,286,5.0,16.0,26,0.00,,,0.00,338.000000,,2013-09-02 00:42:00,
2013-09-01 17:52:00,84.0,45.0,-100.00,WNW,286,5.0,16.0,26,0.00,,,0.00,338.000000,,2013-09-02 00:52:00,
2013-09-01 18:00:00,83.0,51.0,-100.00,NW,312,3.0,15.0,33,0.00,,,0.00,471.000000,,2013-09-02 01:00:00,
2013-09-01 18:42:00,83.0,51.0,-100.00,NW,312,3.0,15.0,33,0.00,,,0.00,471.000000,,2013-09-02 01:42:00,
2013-09-01 18:52:00,83.0,51.0,-100.00,NW,312,3.0,15.0,33,0.00,,,0.00,471.000000,,2013-09-02 01:52:00,
2013-09-01 19:00:00,79.0,55.0,-100.00,WNW,295,3.0,12.0,44,0.00,,,0.00,226.000000,,2013-09-02 02:00:00,
2013-09-01 19:22:00,79.0,55.0,-100.00,WNW,295,3.0,12.0,44,0.00,,,0.00,226.000000,,2013-09-02 02:22:00,
2013-09-01 19:33:00,79.0,55.0,-100.00,WNW,295,3.0,12.0,44,0.00,,,0.00,226.000000,,2013-09-02 02:33:00,
2013-09-01 19:42:00,79.0,55.0,-100.00,WNW,295,3.0,12.0,44,0.00,,,0.00,226.000000,,2013-09-02 02:42:00,
2013-09-01 19:52:00,79.0,55.0,-100.00,WNW,295,3.0,12.0,44,0.00,,,0.00,226.000000,,2013-09-02 02:52:00,
2013-09-01 20:00:00,73.0,55.0,-100.00,NW,304,1.0,11.0,53,0.00,,,0.00,31.000000,,2013-09-02 03:00:00,
2013-09-01 20:22:00,73.0,55.0,-100.00,NW,304,1.0,11.0,53,0.00,,,0.00,31.000000,,2013-09-02 03:22:00,
2013-09-01 20:34:00,73.0,55.0,-100.00,NW,304,1.0,11.0,53,0.00,,,0.00,31.000000,,2013-09-02 03:34:00,
2013-09-01 20:44:00,73.0,55.0,-100.00,NW,304,1.0,11.0,53,0.00,,,0.00,31.000000,,2013-09-02 03:44:00,
2013-09-01 20:56:00,73.0,55.0,-100.00,NW,304,1.0,11.0,53,0.00,,,0.00,31.000000,,2013-09-02 03:56:00,
2013-09-01 21:00:00,69.0,53.0,-100.00,NW,311,2.0,13.0,56,0.00,,,0.00,2.000000,,2013-09-02 04:00:00,
2013-09-01 21:44:00,69.0,53.0,-100.00,NW,311,2.0,13.0,56,0.00,,,0.00,2.000000,,2013-09-02 04:44:00,
2013-09-01 21:54:00,69.0,53.0,-100.00,NW,311,2.0,13.0,56,0.00,,,0.00,2.000000,,2013-09-02 04:54:00,
2013-09-01 22:00:00,70.0,55.0,-100.00,North,6,2.0,7.0,58,0.00,,,0.00,0.000000,,2013-09-02 05:00:00,
2013-09-01 22:23:00,70.0,55.0,-100.00,North,6,2.0,7.0,58,0.00,,,0.00,0.000000,,2013-09-02 05:23:00,
2013-09-01 22:34:00,70.0,55.0,-100.00,North,6,2.0,7.0,58,0.00,,,0.00,0.000000,,2013-09-02 05:34:00,
2013-09-01 22:44:00,70.0,55.0,-100.00,North,6,2.0,7.0,58,0.00,,,0.00,0.000000,,2013-09-02 05:44:00,
2013-09-01 22:52:00,70.0,55.0,-100.00,North,6,2.0,7.0,58,0.00,,,0.00,0.000000,,2013-09-02 05:52:00,
2013-09-01 23:00:00,67.0,54.0,-100.00,NNW,331,0.0,7.0,63,0.00,,,0.00,0.000000,,2013-09-02 06:00:00,
2013-09-01 23:22:00,67.0,54.0,-100.00,NNW,331,0.0,7.0,63,0.00,,,0.00,0.000000,,2013-09-02 06:22:00,
2013-09-01 23:32:00,67.0,54.0,-100.00,NNW,331,0.0,7.0,63,0.00,,,0.00,0.000000,,2013-09-02 06:32:00,
2013-09-01 23:43:00,67.0,54.0,-100.00,NNW,331,0.0,7.0,63,0.00,,,0.00,0.000000,,2013-09-02 06:43:00,
2013-09-01 23:52:00,67.0,54.0,-100.00,NNW,331,0.0,7.0,63,0.00,,,0.00,0.000000,,2013-09-02 06:52:00,